Estación Meteorológica de la Universidad de Murcia
Estación Meteorológica de la Universidad de Murcia
Universidad de Murcia
 

Temperatura ambienteTemperatura ambiente

 

Máxima: 21,1 ºC a las 13:39:00 del día 23/04/2019
Mínima: 12 ºC a las 05:52:00 del día 23/04/2019

||Temperatura máxima últimos meses|| ---- ||Temperatura mínima últimos meses||


Temperatura máxima

  • 1 - 21,1 ºC del día 23/04/2019
  • 2 - 19,1 ºC del día 22/04/2019
  • 3 - 15,8 ºC del día 21/04/2019
  • 4 - 13,9 ºC del día 20/04/2019
  • 5 - 14,3 ºC del día 19/04/2019
  • 6 - 17,4 ºC del día 18/04/2019
  • 7 - 22,1 ºC del día 17/04/2019
  • 8 - 25,6 ºC del día 16/04/2019
  • 9 - 24,6 ºC del día 15/04/2019
  • 10 - 29,2 ºC del día 14/04/2019
  • 11 - 26 ºC del día 13/04/2019
  • 12 - 22,9 ºC del día 12/04/2019
  • 13 - 21,6 ºC del día 11/04/2019
  • 14 - 19,5 ºC del día 10/04/2019
  • 15 - 21,7 ºC del día 09/04/2019
  • 16 - 22,9 ºC del día 08/04/2019
  • 17 - 20 ºC del día 07/04/2019
  • 18 - 17,8 ºC del día 06/04/2019
  • 19 - 21,1 ºC del día 05/04/2019
  • 20 - 19,7 ºC del día 04/04/2019
  • 21 - 25 ºC del día 03/04/2019
  • 22 - 22,8 ºC del día 02/04/2019
  • 23 - 13,2 ºC del día 01/04/2019
  • 24 - 16,1 ºC del día 31/03/2019
  • 25 - 16,1 ºC del día 30/03/2019
  • 26 - 16,1 ºC del día 29/03/2019
  • 27 - 16,1 ºC del día 28/03/2019
  • 28 - 16,1 ºC del día 27/03/2019
  • 29 - 16,1 ºC del día 26/03/2019
  • 30 - 16,1 ºC del día 25/03/2019
  • 31 - 16,1 ºC del día 24/03/2019
  • 32 - 16,1 ºC del día 23/03/2019
  • 33 - 16,1 ºC del día 22/03/2019
  • 34 - 16,1 ºC del día 21/03/2019
  • 35 - 16,1 ºC del día 20/03/2019
  • 36 - 17,3 ºC del día 19/03/2019
  • 37 - 18,8 ºC del día 18/03/2019
  • 38 - 27,4 ºC del día 17/03/2019
  • 39 - 27,7 ºC del día 16/03/2019
  • 40 - 26,3 ºC del día 15/03/2019
  • 41 - 22,2 ºC del día 14/03/2019
  • 42 - 22,9 ºC del día 13/03/2019
  • 43 - 25,4 ºC del día 12/03/2019
  • 44 - 21,6 ºC del día 11/03/2019
  • 45 - 27,6 ºC del día 10/03/2019
  • 46 - 22,8 ºC del día 09/03/2019
  • 47 - 22,2 ºC del día 08/03/2019
  • 48 - 20,7 ºC del día 07/03/2019
  • 49 - 22,5 ºC del día 06/03/2019
  • 50 - 23,7 ºC del día 05/03/2019
  • 51 - 26,5 ºC del día 04/03/2019
  • 52 - 26,5 ºC del día 03/03/2019
  • 53 - 24 ºC del día 02/03/2019
  • 54 - 23,9 ºC del día 01/03/2019
  • 55 - 27,4 ºC del día 28/02/2019
  • 56 - 24,4 ºC del día 27/02/2019
  • 57 - 21,7 ºC del día 26/02/2019
  • 58 - 20,3 ºC del día 25/02/2019

||Volver al inicio de la página||


Temperatura mínima

  • 1 - 12 ºC del día 23/04/2019
  • 2 - 11,3 ºC del día 22/04/2019
  • 3 - 12,2 ºC del día 21/04/2019
  • 4 - 10,9 ºC del día 20/04/2019
  • 5 - 11,4 ºC del día 19/04/2019
  • 6 - 13,2 ºC del día 18/04/2019
  • 7 - 14,5 ºC del día 17/04/2019
  • 8 - 12,7 ºC del día 16/04/2019
  • 9 - 15,5 ºC del día 15/04/2019
  • 10 - 10,6 ºC del día 14/04/2019
  • 11 - 8,7 ºC del día 13/04/2019
  • 12 - 9,9 ºC del día 12/04/2019
  • 13 - 10,2 ºC del día 11/04/2019
  • 14 - 9,6 ºC del día 10/04/2019
  • 15 - 10 ºC del día 09/04/2019
  • 16 - 12,4 ºC del día 08/04/2019
  • 17 - 8,8 ºC del día 07/04/2019
  • 18 - 6,2 ºC del día 06/04/2019
  • 19 - 8,7 ºC del día 05/04/2019
  • 20 - 10 ºC del día 04/04/2019
  • 21 - 10,7 ºC del día 03/04/2019
  • 22 - 11,3 ºC del día 02/04/2019
  • 23 - 9,9 ºC del día 01/04/2019
  • 24 - 8,6 ºC del día 31/03/2019
  • 25 - 8,6 ºC del día 30/03/2019
  • 26 - 8,6 ºC del día 29/03/2019
  • 27 - 8,6 ºC del día 28/03/2019
  • 28 - 8,6 ºC del día 27/03/2019
  • 29 - 8,6 ºC del día 26/03/2019
  • 30 - 8,6 ºC del día 25/03/2019
  • 31 - 8,6 ºC del día 24/03/2019
  • 32 - 8,6 ºC del día 23/03/2019
  • 33 - 8,6 ºC del día 22/03/2019
  • 34 - 8,6 ºC del día 21/03/2019
  • 35 - 8,6 ºC del día 20/03/2019
  • 36 - 10 ºC del día 19/03/2019
  • 37 - 11,4 ºC del día 18/03/2019
  • 38 - 9 ºC del día 17/03/2019
  • 39 - 9,4 ºC del día 16/03/2019
  • 40 - 9,3 ºC del día 15/03/2019
  • 41 - 7,6 ºC del día 14/03/2019
  • 42 - 11,1 ºC del día 13/03/2019
  • 43 - 8,1 ºC del día 12/03/2019
  • 44 - 10,3 ºC del día 11/03/2019
  • 45 - 8,4 ºC del día 10/03/2019
  • 46 - 7,1 ºC del día 09/03/2019
  • 47 - 5,9 ºC del día 08/03/2019
  • 48 - 10 ºC del día 07/03/2019
  • 49 - 13,1 ºC del día 06/03/2019
  • 50 - 11,8 ºC del día 05/03/2019
  • 51 - 9,9 ºC del día 04/03/2019
  • 52 - 8,4 ºC del día 03/03/2019
  • 53 - 10,4 ºC del día 02/03/2019
  • 54 - 7,8 ºC del día 01/03/2019
  • 55 - 5,8 ºC del día 28/02/2019
  • 56 - 5,9 ºC del día 27/02/2019
  • 57 - 4,6 ºC del día 26/02/2019
  • 58 - 6 ºC del día 25/02/2019

 

|| Humedad relativa|| Velocidad y dirección del viento|| Precipitación|| Radiación Solar Global y PAR|| Temperatura y humedad del suelo|| Presión atmosférica|| Más información|| Volver a la página principal|| Volver al inicio de la página||


Estación Meteorológica de la Universidad de Murcia
http://estacion.um.es/
Informacion actualizada a: 24/04/2019 a las 23:55:00